EDT,Max TemperatureF,Mean TemperatureF,Min TemperatureF,Max Dew PointF,MeanDew PointF,Min DewpointF,Max Humidity, Mean Humidity, Min Humidity, Max Sea Level PressureIn, Mean Sea Level PressureIn, Min Sea Level PressureIn, Max VisibilityMiles, Mean VisibilityMiles, Min VisibilityMiles, Max Wind SpeedMPH, Mean Wind SpeedMPH, Max Gust SpeedMPH,PrecipitationIn, CloudCover, Events, WindDirDegrees
2011-9-1,95,84,72,72,67,64,84,62,39,30.17,30.09,30.02,10,10,9,22,3,25,T,3,Rain-Thunderstorm,314
2011-9-2,100,86,71,73,66,59,90,59,28,30.09,30.01,29.92,10,9,2,22,2,30,0.30,3,Rain-Thunderstorm,113
2011-9-3,99,86,73,74,67,59,94,61,28,29.98,29.92,29.81,10,10,9,15,3,21,0.00,5,,60
2011-9-4,86,79,72,70,67,62,87,69,51,29.91,29.88,29.83,10,10,7,16,3,22,0.01,7,Rain,161
2011-9-5,73,68,63,70,67,61,100,90,79,29.85,29.71,29.57,10,2,0,36,13,49,9.85,8,Fog-Rain,15
2011-9-6,66,64,62,65,61,58,100,92,84,29.86,29.66,29.53,10,4,0,36,9,43,0.54,8,Fog-Rain,22
2011-9-7,71,66,60,58,57,56,90,76,61,30.02,29.95,29.86,10,10,6,14,4,16,T,7,,305
2011-9-8,72,66,59,58,56,54,90,74,57,30.01,29.97,29.94,10,10,10,15,4,20,0.00,6,,317
2011-9-9,79,68,57,60,56,51,93,66,39,29.99,29.95,29.93,10,10,10,9,1,13,0.00,4,,283
2011-9-10,85,71,56,60,55,46,100,64,28,30.08,30.03,29.99,10,9,0,10,1,14,0.00,2,Fog,290
2011-9-11,86,73,59,61,56,49,93,61,29,30.12,30.08,30.03,10,10,10,15,2,20,T,4,Rain-Thunderstorm,248
2011-9-12,85,74,62,65,61,58,93,67,40,30.14,30.08,30.01,10,10,8,13,1,17,0.00,3,Fog-Rain,73
2011-9-13,90,76,61,64,59,51,93,61,29,30.08,30.03,29.98,10,10,9,8,1,10,0.00,2,,334
2011-9-14,89,75,61,63,59,52,93,61,29,30.03,29.97,29.89,10,10,10,12,2,16,0.00,4,,183
2011-9-15,73,67,61,65,59,48,87,74,60,30.14,30.00,29.88,10,10,9,24,9,30,0.01,7,Rain,336
2011-9-16,69,63,56,57,51,47,73,65,57,30.22,30.18,30.12,10,10,10,20,7,25,0.00,6,,41
2011-9-17,78,68,58,60,53,48,87,65,43,30.27,30.21,30.16,10,10,10,8,2,12,0.00,5,,184
2011-9-18,80,69,58,60,57,55,90,69,48,30.26,30.20,30.14,10,10,10,15,4,21,0.00,4,,163
2011-9-19,73,69,64,62,56,53,73,65,57,30.18,30.12,30.05,10,10,9,13,6,20,0.03,7,Rain,164
2011-9-20,74,69,64,67,63,61,93,83,73,30.12,30.07,30.02,10,9,7,8,2,12,0.05,7,Rain,85
2011-9-21,84,76,68,67,66,64,90,71,51,30.09,30.05,29.99,10,10,10,9,2,25,0.02,6,Rain,165
2011-9-22,83,74,65,69,67,64,97,80,62,30.16,30.08,30.01,10,7,0,23,2,30,0.25,7,Rain-Thunderstorm,182
2011-9-23,76,67,57,68,62,53,97,79,60,30.05,30.01,29.99,10,9,8,16,6,18,0.00,7,,294
2011-9-24,80,65,50,56,51,45,96,64,31,30.04,30.00,29.94,10,10,10,10,2,15,0.00,2,Fog,344
2011-9-25,83,71,58,63,58,54,93,68,43,30.01,29.93,29.81,10,10,10,14,3,17,0.00,5,,170
2011-9-26,78,71,64,69,66,63,93,80,67,29.93,29.87,29.81,10,10,4,16,6,22,0.15,7,Rain,190
2011-9-27,75,65,55,63,57,50,100,72,44,29.99,29.93,29.86,10,7,1,9,2,20,0.00,4,Fog,183
2011-9-28,82,69,56,60,56,51,100,68,36,29.93,29.89,29.82,10,6,0,15,3,21,T,3,Fog,238
2011-9-29,83,71,58,59,58,56,93,67,40,29.92,29.88,29.83,10,10,10,12,1,16,0.00,2,Fog,274
2011-9-30,73,65,56,59,47,42,90,63,35,29.97,29.91,29.83,10,10,10,20,9,30,0.00,2,,327